DW2149 Weather Reports


time (UTC)temp
C
wind
direction
speed
KPH
gust
KPH
rain 1hr
cm
rain 24hr
cm
rain mn
cm
humidity
%
barometer
mb
20260504034355 14 298 0.0 0.0 0.00 0.00 0.00 69 1009.5
20260504033823 14 298 0.0 0.0 0.00 0.00 0.00 69 1009.4
20260504033617 14 299 0.0 0.0 0.00 0.00 0.00 69 1009.4
20260504033413 14 298 0.0 0.0 0.00 0.00 0.00 69 1009.4
20260504033205 14 299 0.0 0.0 0.00 0.00 0.00 68 1009.3
20260504032959 14 299 0.0 0.0 0.00 0.00 0.00 68 1009.3
20260504032421 14 299 0.0 3.2 0.00 0.00 0.00 68 1009.1
20260504031840 15 298 0.0 0.0 0.00 0.00 0.00 67 1009.0
20260504031636 15 298 0.0 0.0 0.00 0.00 0.00 67 1008.9
20260504031423 15 298 0.0 0.0 0.00 0.00 0.00 67 1008.9
20260504031218 15 298 0.0 0.0 0.00 0.00 0.00 67 1008.9
20260504031006 15 298 0.0 0.0 0.00 0.00 0.00 67 1008.9
20260504030802 15 298 0.0 3.2 0.00 0.00 0.00 67 1008.9
20260504030554 15 302 0.0 0.0 0.00 0.00 0.00 67 1008.9
20260504030350 15 302 0.0 0.0 0.00 0.00 0.00 67 1008.8
20260504030148 15 302 0.0 0.0 0.00 0.00 0.00 66 1008.8
20260504025752 15 302 0.0 0.0 0.00 0.00 0.00 66 1008.8
20260504025403 15 302 0.0 0.0 0.00 0.00 0.00 66 1008.7
20260504025158 15 302 0.0 0.0 0.00 0.00 0.00 66 1008.6
20260504024954 15 302 0.0 1.6 0.00 0.00 0.00 66 1008.6
20260504024600 15 302 0.0 0.0 0.00 0.00 0.00 65 1008.5
20260504024357 15 302 0.0 3.2 0.00 0.00 0.00 65 1008.5
20260504024148 15 301 0.0 0.0 0.00 0.00 0.00 65 1008.5
20260504023755 15 301 0.0 1.6 0.00 0.00 0.00 65 1008.3
20260504023547 15 308 0.0 1.6 0.00 0.00 0.00 65 1008.3
20260504023344 15 309 0.0 1.6 0.00 0.00 0.00 65 1008.3
20260504023141 16 309 0.0 0.0 0.00 0.00 0.00 65 1008.3
20260504022938 16 309 0.0 4.8 0.00 0.00 0.00 65 1008.3
20260504022549 16 309 0.0 0.0 0.00 0.00 0.00 64 1008.2
20260504022156 16 309 0.0 0.0 0.00 0.00 0.00 64 1008.2
20260504021944 16 308 0.0 6.4 0.00 0.00 0.00 64 1008.1
20260504021733 16 228 0.0 1.6 0.00 0.00 0.00 64 1008.1
20260504021531 16 224 0.0 1.6 0.00 0.00 0.00 64 1008.1
20260504021320 16 224 0.0 0.0 0.00 0.00 0.00 64 1008.0
20260504021113 16 224 0.0 0.0 0.00 0.00 0.00 64 1008.0
20260504020901 16 224 0.0 0.0 0.00 0.00 0.00 63 1008.0
20260504020649 16 224 0.0 0.0 0.00 0.00 0.00 63 1008.0
20260504020447 16 224 0.0 0.0 0.00 0.00 0.00 63 1007.9
20260504020245 16 224 0.0 3.2 0.00 0.00 0.00 63 1007.9
20260504015855 16 225 0.0 3.2 0.00 0.00 0.00 63 1007.8
20260504015645 16 225 0.0 4.8 0.00 0.00 0.00 63 1007.8
20260504015443 16 225 0.0 8.0 0.00 0.00 0.00 63 1007.8
20260504015237 16 216 0.0 8.0 0.00 0.00 0.00 63 1007.8
20260504015028 16 216 0.0 8.0 0.00 0.00 0.00 63 1007.8
20260504014822 16 229 0.0 8.0 0.00 0.00 0.00 62 1007.8
20260504014621 17 240 0.0 8.0 0.00 0.00 0.00 62 1007.8
20260504014409 17 271 0.0 8.0 0.00 0.00 0.00 63 1007.8
20260504014202 17 271 0.0 8.0 0.00 0.00 0.00 62 1007.9
20260504013956 17 271 0.0 8.0 0.00 0.00 0.00 63 1007.8
20260504013752 17 271 0.0 8.0 0.00 0.00 0.00 63 1007.8
20260504013549 17 219 0.0 3.2 0.00 0.00 0.00 63 1007.8
20260504013335 17 214 0.0 0.0 0.00 0.00 0.00 63 1007.7
20260504013126 17 214 0.0 9.7 0.00 0.00 0.00 63 1007.8
20260504012917 17 208 0.0 9.7 0.00 0.00 0.00 63 1007.8
20260504012712 17 208 0.0 9.7 0.00 0.00 0.00 63 1007.9
20260504012502 17 208 0.0 9.7 0.00 0.00 0.00 62 1007.9
20260504012112 17 269 0.0 8.0 0.00 0.00 0.00 62 1007.9
20260504011902 17 269 1.6 8.0 0.00 0.00 0.00 62 1008.0
20260504011651 17 221 1.6 8.0 0.00 0.00 0.00 61 1008.0
20260504011448 17 205 0.0 8.0 0.00 0.00 0.00 61 1008.0
20260504010913 17 292 1.6 3.2 0.00 0.00 0.00 63 1008.1
20260504010709 17 292 1.6 0.0 0.00 0.00 0.00 62 1008.1
20260504005426 17 219 0.0 6.4 0.00 0.00 0.00 63 1008.0
20260504005224 17 273 0.0 6.4 0.00 0.00 0.00 63 1008.0
20260504005021 17 273 0.0 6.4 0.00 0.00 0.00 63 1008.0
20260504004626 17 287 1.6 0.0 0.00 0.00 0.00 63 1008.0
20260504004418 17 287 1.6 9.7 0.00 0.00 0.00 63 1008.0
20260504004214 17 286 1.6 9.7 0.00 0.00 0.00 63 1008.0
20260504004006 17 286 1.6 9.7 0.00 0.00 0.00 63 1008.0
20260504003801 17 323 0.0 8.0 0.00 0.00 0.00 64 1008.0
20260504003548 17 225 0.0 8.0 0.00 0.00 0.00 64 1007.9
20260504003346 17 225 0.0 8.0 0.00 0.00 0.00 64 1007.8
20260504003143 16 225 1.6 8.0 0.00 0.00 0.00 64 1007.8
20260504002749 16 308 0.0 8.0 0.00 0.00 0.00 65 1007.8
20260504002544 16 340 0.0 8.0 0.00 0.00 0.00 64 1007.8
20260504002331 16 313 0.0 6.4 0.00 0.00 0.00 64 1007.7
20260504001942 17 275 0.0 1.6 0.00 0.00 0.00 65 1007.7
20260504001737 17 275 0.0 3.2 0.00 0.00 0.00 64 1007.6
20260504001530 17 275 0.0 3.2 0.00 0.00 0.00 64 1007.6
20260504001319 17 275 0.0 0.0 0.00 0.00 0.00 64 1007.6
20260504000925 17 275 0.0 8.0 0.00 0.00 0.00 64 1007.6
20260504000354 17 257 0.0 0.0 0.00 0.00 0.00 63 1007.6
20260503235957 17 257 0.0 4.8 0.00 0.00 0.00 63 1007.6
20260503235755 17 256 0.0 6.4 0.00 0.00 0.00 63 1007.6
20260503235544 17 257 0.0 6.4 0.00 0.00 0.00 63 1007.6
20260503235154 17 268 0.0 6.4 0.00 0.00 0.00 63 1007.5
20260503234949 17 268 0.0 6.4 0.00 0.00 0.00 63 1007.5
20260503234744 17 267 0.0 6.4 0.00 0.00 0.00 63 1007.5
20260503234539 17 267 0.0 6.4 0.00 0.00 0.00 63 1007.5
20260503234150 17 267 0.0 6.4 0.00 0.00 0.00 63 1007.5
20260503233940 17 267 0.0 6.4 0.00 0.00 0.00 63 1007.5
20260503233733 17 250 0.0 4.8 0.00 0.00 0.00 63 1007.5
20260503233528 17 250 0.0 4.8 0.00 0.00 0.00 63 1007.5
20260503233323 17 245 0.0 4.8 0.00 0.00 0.00 63 1007.5
20260503232931 17 296 1.6 4.8 0.00 0.00 0.00 62 1007.5
20260503232728 17 296 1.6 4.8 0.00 0.00 0.00 63 1007.6
20260503232333 18 258 0.0 4.8 0.00 0.00 0.00 62 1007.6
20260503232119 18 244 0.0 4.8 0.00 0.00 0.00 63 1007.6
20260503231908 18 244 0.0 3.2 0.00 0.00 0.00 62 1007.6
20260503231656 18 244 0.0 4.8 0.00 0.00 0.00 62 1007.6
20260503231446 18 244 0.0 4.8 0.00 0.00 0.00 63 1007.6
20260503231241 18 241 0.0 4.8 0.00 0.00 0.00 62 1007.6
20260503231035 18 242 0.0 4.8 0.00 0.00 0.00 62 1007.5
20260503230830 18 313 0.0 0.0 0.00 0.00 0.00 62 1007.5
20260503230619 18 312 0.0 3.2 0.00 0.00 0.00 62 1007.5
20260503230225 18 97 0.0 0.0 0.00 0.00 0.00 63 1007.5
20260503230016 18 97 0.0 6.4 0.00 0.00 0.00 62 1007.6
20260503225807 18 86 0.0 6.4 0.00 0.00 0.00 61 1007.6
20260503225605 18 222 0.0 6.4 0.00 0.00 0.00 61 1007.7
20260503225400 18 222 0.0 6.4 0.00 0.00 0.00 60 1007.7
20260503225003 18 220 0.0 6.4 0.00 0.00 0.00 60 1007.8
20260503224755 18 220 0.0 6.4 0.00 0.00 0.00 60 1007.7
20260503224407 19 182 0.0 6.4 0.00 0.00 0.00 60 1007.7
20260503224020 19 216 1.6 6.4 0.00 0.00 0.00 61 1007.7
20260503223818 19 170 1.6 6.4 0.00 0.00 0.00 61 1007.5
20260503223611 19 168 1.6 6.4 0.00 0.00 0.00 62 1007.6
20260503223406 19 194 1.6 6.4 0.00 0.00 0.00 62 1007.6
20260503223008 18 169 0.0 6.4 0.00 0.00 0.00 62 1007.6
20260503222613 18 215 0.0 3.2 0.00 0.00 0.00 62 1007.7
20260503222402 18 215 0.0 8.0 0.00 0.00 0.00 60 1007.7
20260503222151 19 215 1.6 8.0 0.00 0.00 0.00 59 1007.8
20260503221938 19 211 1.6 8.0 0.00 0.00 0.00 58 1007.7
20260503221729 19 211 1.6 8.0 0.00 0.00 0.00 58 1007.8
20260503221526 20 223 1.6 9.7 0.00 0.00 0.00 58 1007.8
20260503221316 20 205 1.6 9.7 0.00 0.00 0.00 59 1007.7
20260503221108 20 205 1.6 9.7 0.00 0.00 0.00 60 1007.8
20260503220906 20 205 1.6 9.7 0.00 0.00 0.00 59 1007.7
20260503220659 20 198 1.6 9.7 0.00 0.00 0.00 60 1007.7
20260503220447 20 174 1.6 12.9 0.00 0.00 0.00 61 1007.8
20260503220236 19 203 3.2 12.9 0.00 0.00 0.00 61 1007.8
20260503220024 20 215 3.2 12.9 0.00 0.00 0.00 60 1007.8
20260503215822 20 215 3.2 12.9 0.00 0.00 0.00 60 1007.8
20260503215616 19 198 3.2 12.9 0.00 0.00 0.00 60 1007.7
20260503215225 20 213 3.2 12.9 0.00 0.00 0.00 59 1007.8
20260503215017 20 199 3.2 12.9 0.00 0.00 0.00 59 1007.7
20260503214808 20 196 3.2 12.9 0.00 0.00 0.00 60 1007.8
20260503214412 20 202 1.6 9.7 0.00 0.00 0.00 60 1007.9
20260503214206 20 212 1.6 8.0 0.00 0.00 0.00 60 1007.8
20260503214003 20 212 1.6 8.0 0.00 0.00 0.00 61 1007.8
20260503213756 20 211 1.6 8.0 0.00 0.00 0.00 61 1007.8
20260503213546 20 215 1.6 8.0 0.00 0.00 0.00 61 1007.8
20260503213157 20 217 0.0 6.4 0.00 0.00 0.00 63 1007.8
20260503212945 20 196 0.0 6.4 0.00 0.00 0.00 61 1007.8
20260503212738 20 186 0.0 9.7 0.00 0.00 0.00 63 1007.8
20260503212530 19 212 0.0 9.7 0.00 0.00 0.00 63 1007.9
20260503212320 19 212 1.6 9.7 0.00 0.00 0.00 65 1007.8
20260503212116 19 212 1.6 9.7 0.00 0.00 0.00 65 1007.9
20260503211913 19 215 1.6 9.7 0.00 0.00 0.00 66 1007.9
20260503211701 18 214 3.2 9.7 0.00 0.00 0.00 65 1007.9
20260503211314 18 228 1.6 9.7 0.00 0.00 0.00 64 1007.9
20260503211105 18 202 1.6 9.7 0.00 0.00 0.00 67 1007.9
20260503210903 18 205 1.6 9.7 0.00 0.00 0.00 65 1007.9
20260503210651 18 186 1.6 4.8 0.00 0.00 0.00 65 1008.0
20260503210442 18 187 1.6 4.8 0.00 0.00 0.00 67 1008.0
20260503210233 18 237 1.6 14.5 0.00 0.00 0.00 68 1008.0
20260503210026 18 213 3.2 14.5 0.00 0.00 0.00 65 1008.0
20260503205816 18 210 1.6 14.5 0.00 0.00 0.00 67 1008.0
20260503205424 18 205 3.2 14.5 0.00 0.00 0.00 67 1008.0
20260503205221 18 215 3.2 14.5 0.00 0.00 0.00 68 1008.1
20260503205008 17 242 4.8 14.5 0.00 0.00 0.00 69 1008.1
20260503204800 17 220 4.8 14.5 0.00 0.00 0.00 69 1008.1
20260503204548 17 212 3.2 14.5 0.00 0.00 0.00 70 1008.1
20260503204337 17 217 3.2 14.5 0.00 0.00 0.00 69 1008.1
20260503204136 17 232 3.2 9.7 0.00 0.00 0.00 71 1008.1
20260503203930 17 206 3.2 9.7 0.00 0.00 0.00 70 1008.1
20260503203728 17 209 1.6 8.0 0.00 0.00 0.00 70 1008.1
20260503203515 17 238 1.6 8.0 0.00 0.00 0.00 70 1008.1
20260503203314 17 231 1.6 8.0 0.00 0.00 0.00 69 1008.0
20260503203106 17 209 1.6 8.0 0.00 0.00 0.00 69 1008.1
20260503202858 17 222 1.6 8.0 0.00 0.00 0.00 68 1008.1
20260503202501 17 222 1.6 8.0 0.00 0.00 0.00 68 1008.1
20260503202249 17 219 1.6 8.0 0.00 0.00 0.00 68 1008.1
20260503201900 18 223 0.0 6.4 0.00 0.00 0.00 67 1008.1
20260503201653 18 228 0.0 4.8 0.00 0.00 0.00 67 1008.1
20260503201255 18 231 0.0 9.7 0.00 0.00 0.00 68 1008.1
20260503201046 18 231 1.6 9.7 0.00 0.00 0.00 67 1008.2
20260503200841 18 233 1.6 9.7 0.00 0.00 0.00 67 1008.2
20260503200632 18 246 1.6 9.7 0.00 0.00 0.00 66 1008.2
20260503200425 18 246 1.6 9.7 0.00 0.00 0.00 66 1008.1
20260503200223 18 242 1.6 9.7 0.00 0.00 0.00 66 1008.1
20260503200016 18 238 1.6 9.7 0.00 0.00 0.00 66 1008.2
20260503195808 18 238 1.6 9.7 0.00 0.00 0.00 66 1008.1
20260503195605 18 238 1.6 9.7 0.00 0.00 0.00 66 1008.2
20260503195355 18 237 1.6 9.7 0.00 0.00 0.00 65 1008.1
20260503195143 18 284 1.6 8.0 0.00 0.00 0.00 65 1008.1
20260503194748 19 224 1.6 9.7 0.00 0.00 0.00 64 1008.1
20260503194541 19 180 1.6 9.7 0.00 0.00 0.00 64 1008.1
20260503194330 19 180 3.2 9.7 0.00 0.00 0.00 63 1008.2
20260503194123 20 155 3.2 9.7 0.00 0.00 0.00 62 1008.1
20260503193910 20 211 3.2 12.9 0.00 0.00 0.00 62 1008.1
20260503193704 20 192 3.2 12.9 0.00 0.00 0.00 62 1008.0
20260503193501 20 160 3.2 12.9 0.00 0.00 0.00 60 1008.0
20260503193114 20 165 4.8 12.9 0.00 0.00 0.00 61 1008.0
20260503192912 20 157 4.8 12.9 0.00 0.00 0.00 61 1008.0
20260503192706 21 192 4.8 12.9 0.00 0.00 0.00 58 1008.1
20260503192458 21 234 4.8 12.9 0.00 0.00 0.00 57 1008.1
20260503192247 21 217 4.8 12.9 0.00 0.00 0.00 56 1007.9
20260503192039 21 219 4.8 12.9 0.00 0.00 0.00 57 1007.9
20260503191837 21 236 4.8 12.9 0.00 0.00 0.00 59 1007.8
20260503191631 21 205 4.8 12.9 0.00 0.00 0.00 57 1007.8
20260503191427 21 229 4.8 12.9 0.00 0.00 0.00 58 1007.9
20260503191036 21 227 3.2 12.9 0.00 0.00 0.00 55 1007.8
20260503190825 21 211 4.8 12.9 0.00 0.00 0.00 57 1007.8
20260503190618 21 215 4.8 12.9 0.00 0.00 0.00 56 1007.8
20260503190412 21 217 4.8 12.9 0.00 0.00 0.00 56 1007.8
20260503190203 21 202 3.2 12.9 0.00 0.00 0.00 58 1007.8
20260503190002 21 197 3.2 12.9 0.00 0.00 0.00 56 1007.9
20260503185614 21 221 3.2 9.7 0.00 0.00 0.00 58 1007.9
20260503185401 21 211 3.2 9.7 0.00 0.00 0.00 58 1007.9
20260503185158 20 209 3.2 11.3 0.00 0.00 0.00 60 1008.0
20260503184951 21 234 3.2 11.3 0.00 0.00 0.00 61 1008.0
20260503184750 21 214 3.2 11.3 0.00 0.00 0.00 61 1008.0
20260503184400 21 238 3.2 11.3 0.00 0.00 0.00 61 1008.1
20260503184150 21 208 4.8 11.3 0.00 0.00 0.00 63 1008.1
20260503183945 20 209 4.8 11.3 0.00 0.00 0.00 63 1008.2
20260503183741 20 213 4.8 11.3 0.00 0.00 0.00 62 1008.1
20260503183534 20 215 4.8 11.3 0.00 0.00 0.00 62 1008.1
20260503183331 20 213 4.8 11.3 0.00 0.00 0.00 61 1008.1
20260503183130 20 206 4.8 11.3 0.00 0.00 0.00 61 1008.2
20260503182928 20 221 4.8 11.3 0.00 0.00 0.00 62 1008.1
20260503182726 20 220 4.8 11.3 0.00 0.00 0.00 62 1008.2
20260503182513 20 232 3.2 11.3 0.00 0.00 0.00 61 1008.2
20260503182308 20 211 3.2 11.3 0.00 0.00 0.00 61 1008.2
20260503182102 20 209 1.6 11.3 0.00 0.00 0.00 60 1008.2
20260503181900 20 199 3.2 11.3 0.00 0.00 0.00 61 1008.2
20260503181651 20 198 3.2 11.3 0.00 0.00 0.00 59 1008.2
20260503181439 20 198 3.2 11.3 0.00 0.00 0.00 59 1008.2
20260503181231 20 214 1.6 11.3 0.00 0.00 0.00 58 1008.2
20260503181020 20 214 3.2 11.3 0.00 0.00 0.00 56 1008.2
20260503180809 20 224 1.6 11.3 0.00 0.00 0.00 59 1008.2
20260503180607 20 206 1.6 11.3 0.00 0.00 0.00 58 1008.2
20260503180354 19 206 1.6 11.3 0.00 0.00 0.00 59 1008.2
20260503180146 19 223 1.6 4.8 0.00 0.00 0.00 58 1008.1
20260503175938 19 223 1.6 4.8 0.00 0.00 0.00 58 1008.1
20260503175542 19 225 0.0 6.4 0.00 0.00 0.00 56 1008.1
20260503175329 18 226 0.0 6.4 0.00 0.00 0.00 58 1008.1
20260503175126 18 226 0.0 6.4 0.00 0.00 0.00 58 1008.2
20260503174552 18 227 0.0 4.8 0.00 0.00 0.00 59 1008.2
20260503174154 18 227 0.0 4.8 0.00 0.00 0.00 60 1008.1
20260503173943 18 227 0.0 4.8 0.00 0.00 0.00 61 1008.2
20260503173741 18 227 0.0 4.8 0.00 0.00 0.00 61 1008.1
20260503173539 18 227 0.0 0.0 0.00 0.00 0.00 60 1008.1
20260503173330 18 227 0.0 8.0 0.00 0.00 0.00 61 1008.1
20260503173118 18 227 0.0 8.0 0.00 0.00 0.00 61 1008.1
20260503172908 18 207 0.0 8.0 0.00 0.00 0.00 61 1008.1
20260503172658 18 207 0.0 8.0 0.00 0.00 0.00 61 1008.0
20260503172448 18 207 0.0 8.0 0.00 0.00 0.00 62 1008.0
20260503172101 18 207 0.0 8.0 0.00 0.00 0.00 62 1008.0
20260503171852 18 173 0.0 3.2 0.00 0.00 0.00 62 1008.0
20260503171642 18 135 0.0 3.2 0.00 0.00 0.00 63 1008.0
20260503171436 17 215 0.0 0.0 0.00 0.00 0.00 64 1008.0
20260503171226 17 215 1.6 8.0 0.00 0.00 0.00 63 1008.0
20260503171022 17 215 1.6 8.0 0.00 0.00 0.00 63 1008.0
20260503170809 17 215 3.2 8.0 0.00 0.00 0.00 63 1008.0
20260503170606 17 215 1.6 8.0 0.00 0.00 0.00 62 1008.0
20260503170402 17 214 1.6 8.0 0.00 0.00 0.00 63 1008.0
20260503170149 17 227 0.0 6.4 0.00 0.00 0.00 63 1007.9
20260503160149 12 242 0.0 3.2 0.00 0.00 0.00 82 1007.7
20260503150643 10 199 0.0 0.0 0.00 0.00 0.00 82 1007.5
20260503150442 10 199 0.0 0.0 0.00 0.00 0.00 82 1007.5
20260503140140 10 199 0.0 0.0 0.00 0.00 0.00 81 1007.3
20260503131328 10 199 0.0 0.0 0.00 0.00 0.00 81 1007.1
20260503131125 10 199 0.0 0.0 0.00 0.00 0.00 81 1007.1
20260503130919 10 199 0.0 0.0 0.00 0.00 0.00 81 1007.1
20260503130530 10 199 0.0 0.0 0.00 0.00 0.00 81 1007.1
20260503130319 10 199 0.0 0.0 0.00 0.00 0.00 82 1007.1
20260503130112 10 199 0.0 0.0 0.00 0.00 0.00 82 1007.0
20260503110711 9 199 0.0 0.0 0.00 0.00 0.00 79 1007.3
20260503110505 9 199 0.0 0.0 0.00 0.00 0.00 79 1007.3
20260503110303 9 199 0.0 0.0 0.00 0.00 0.00 79 1007.3
20260503100219 9 199 0.0 0.0 0.00 0.00 0.00 77 1007.4
20260503090138 10 199 0.0 0.0 0.00 0.00 0.00 76 1008.0
20260503081553 10 199 0.0 0.0 0.00 0.00 0.00 74 1008.0
20260503081351 10 199 0.0 0.0 0.00 0.00 0.00 74 1008.0
20260503080955 10 199 0.0 0.0 0.00 0.00 0.00 74 1008.1
20260503080745 11 199 0.0 0.0 0.00 0.00 0.00 74 1008.1
20260503080538 11 199 0.0 0.0 0.00 0.00 0.00 74 1008.0
20260503080330 11 199 0.0 0.0 0.00 0.00 0.00 74 1008.0
20260503080125 11 199 0.0 0.0 0.00 0.00 0.00 74 1008.0
20260503072807 11 199 0.0 0.0 0.00 0.00 0.00 73 1008.1
20260503072559 11 199 0.0 0.0 0.00 0.00 0.00 72 1008.1
20260503072355 11 199 0.0 0.0 0.00 0.00 0.00 72 1008.1
20260503071817 11 199 0.0 0.0 0.00 0.00 0.00 72 1008.1
20260503071606 11 199 0.0 0.0 0.00 0.00 0.00 72 1008.1
20260503071219 11 199 0.0 0.0 0.00 0.00 0.00 72 1008.1
20260503071008 11 199 0.0 0.0 0.00 0.00 0.00 72 1008.1
20260503070757 11 199 0.0 0.0 0.00 0.00 0.00 72 1008.1
20260503070544 11 199 0.0 0.0 0.00 0.00 0.00 72 1008.1
20260503070339 11 199 0.0 0.0 0.00 0.00 0.00 72 1008.2
20260503070127 11 199 0.0 0.0 0.00 0.00 0.00 72 1008.2
20260503060238 12 199 0.0 0.0 0.00 0.00 0.00 70 1008.3
20260503055013 12 199 0.0 0.0 0.00 0.00 0.00 70 1008.4
20260503054801 12 199 0.0 0.0 0.00 0.00 0.00 70 1008.4
20260503054550 12 199 0.0 0.0 0.00 0.00 0.00 70 1008.4
20260503054346 12 199 0.0 0.0 0.00 0.00 0.00 70 1008.4
20260503054135 12 199 0.0 0.0 0.00 0.00 0.00 69 1008.4
20260503053927 12 199 0.0 0.0 0.00 0.00 0.00 69 1008.5
20260503053720 13 199 0.0 0.0 0.00 0.00 0.00 69 1008.5
20260503053334 13 199 0.0 0.0 0.00 0.00 0.00 69 1008.5
20260503053130 13 199 0.0 0.0 0.00 0.00 0.00 69 1008.5
20260503052924 13 199 0.0 0.0 0.00 0.00 0.00 69 1008.5
20260503052714 13 199 0.0 0.0 0.00 0.00 0.00 69 1008.4
20260503052504 13 199 0.0 0.0 0.00 0.00 0.00 69 1008.5
20260503052251 13 199 0.0 0.0 0.00 0.00 0.00 69 1008.4
20260503052043 13 199 0.0 0.0 0.00 0.00 0.00 70 1008.5
20260503051837 13 199 0.0 0.0 0.00 0.00 0.00 70 1008.5
20260503051631 13 199 0.0 0.0 0.00 0.00 0.00 70 1008.5
20260503051422 13 199 0.0 0.0 0.00 0.00 0.00 70 1008.5
20260503050845 13 199 0.0 0.0 0.00 0.00 0.00 69 1008.5
20260503050640 13 199 0.0 0.0 0.00 0.00 0.00 70 1008.5
20260503050428 13 199 0.0 0.0 0.00 0.00 0.00 69 1008.5
20260503050220 13 199 0.0 0.0 0.00 0.00 0.00 69 1008.5
20260503050015 13 199 0.0 0.0 0.00 0.00 0.00 69 1008.5
20260503045813 13 199 0.0 0.0 0.00 0.00 0.00 69 1008.5
20260503045604 13 199 0.0 0.0 0.00 0.00 0.00 69 1008.5
20260503045400 13 199 0.0 0.0 0.00 0.00 0.00 69 1008.5
20260503045149 14 199 0.0 0.0 0.00 0.00 0.00 69 1008.4
20260503044947 14 199 0.0 0.0 0.00 0.00 0.00 68 1008.4
20260503044744 14 199 0.0 0.0 0.00 0.00 0.00 68 1008.4
20260503044531 14 199 0.0 0.0 0.00 0.00 0.00 68 1008.4
20260503044326 14 199 0.0 0.0 0.00 0.00 0.00 68 1008.3
20260503044120 14 199 0.0 0.0 0.00 0.00 0.00 68 1008.3
20260503043912 14 199 0.0 0.0 0.00 0.00 0.00 68 1008.3
20260503043707 14 199 0.0 0.0 0.00 0.00 0.00 68 1008.3
20260503043501 14 199 0.0 0.0 0.00 0.00 0.00 68 1008.3
20260503043251 15 199 0.0 0.0 0.00 0.00 0.00 68 1008.3
20260503043047 15 199 0.0 0.0 0.00 0.00 0.00 67 1008.3
20260503042838 15 199 0.0 0.0 0.00 0.00 0.00 67 1008.3
20260503042637 15 199 0.0 0.0 0.00 0.00 0.00 67 1008.3
20260503042427 15 199 0.0 0.0 0.00 0.00 0.00 67 1008.3
20260503042222 15 199 0.0 0.0 0.00 0.00 0.00 67 1008.3
20260503041827 15 199 0.0 0.0 0.00 0.00 0.00 66 1008.2
20260503041616 15 199 0.0 0.0 0.00 0.00 0.00 66 1008.3
20260503041412 15 199 0.0 0.0 0.00 0.00 0.00 66 1008.2
20260503041159 15 199 0.0 0.0 0.00 0.00 0.00 66 1008.2
20260503040953 15 199 0.0 0.0 0.00 0.00 0.00 65 1008.2
20260503040743 15 199 0.0 0.0 0.00 0.00 0.00 65 1008.2
20260503040532 16 199 0.0 0.0 0.00 0.00 0.00 65 1008.1
20260503040320 16 199 0.0 0.0 0.00 0.00 0.00 65 1008.0
20260503040108 16 199 0.0 0.0 0.00 0.00 0.00 65 1008.1
20260503035855 16 199 0.0 0.0 0.00 0.00 0.00 64 1008.1
20260503035507 16 199 0.0 0.0 0.00 0.00 0.00 64 1008.1
20260503035258 16 199 0.0 0.0 0.00 0.00 0.00 64 1008.1
20260503035045 16 199 0.0 0.0 0.00 0.00 0.00 63 1008.0
20260503034838 16 199 0.0 0.0 0.00 0.00 0.00 63 1008.0